Time,TemperatureF,DewpointF,PressureIn,WindDirection,WindDirectionDegrees,WindSpeedMPH,WindSpeedGustMPH,Humidity,HourlyPrecipIn,Conditions,Clouds,dailyrainin,SolarRadiationWatts/m^2,SoftwareType,DateUTC
2013-02-15 00:21:00,52.0,52.0,30.12,NE,47,2.0,7.0,100,0.00,,,0.00,0.000000,,2013-02-15 08:21:00,
2013-02-15 00:31:00,52.0,52.0,30.12,NE,47,2.0,7.0,100,0.00,,,0.00,0.000000,,2013-02-15 08:31:00,
2013-02-15 01:21:00,51.0,50.0,30.12,NNE,13,5.0,7.0,98,0.00,,,0.00,0.000000,,2013-02-15 09:21:00,
2013-02-15 02:21:00,56.0,38.0,30.11,NNE,25,3.0,9.0,50,0.00,,,0.00,0.000000,,2013-02-15 10:21:00,
2013-02-15 02:31:00,56.0,38.0,30.11,NNE,25,3.0,9.0,50,0.00,,,0.00,0.000000,,2013-02-15 10:31:00,
2013-02-15 02:41:00,56.0,38.0,30.11,NNE,25,3.0,9.0,50,0.00,,,0.00,0.000000,,2013-02-15 10:41:00,
2013-02-15 02:51:00,56.0,38.0,30.11,NNE,25,3.0,9.0,50,0.00,,,0.00,0.000000,,2013-02-15 10:51:00,
2013-02-15 03:22:00,58.0,29.0,30.09,ENE,76,5.0,12.0,33,0.00,,,0.00,0.000000,,2013-02-15 11:22:00,
2013-02-15 03:31:00,58.0,29.0,30.09,ENE,76,5.0,12.0,33,0.00,,,0.00,0.000000,,2013-02-15 11:31:00,
2013-02-15 03:42:00,58.0,29.0,30.09,ENE,76,5.0,12.0,33,0.00,,,0.00,0.000000,,2013-02-15 11:42:00,
2013-02-15 03:52:00,58.0,29.0,30.09,ENE,76,5.0,12.0,33,0.00,,,0.00,0.000000,,2013-02-15 11:52:00,
2013-02-15 04:21:00,63.0,27.0,30.08,NE,50,9.0,21.0,25,0.00,,,0.00,0.000000,,2013-02-15 12:21:00,
2013-02-15 04:32:00,63.0,27.0,30.08,NE,50,9.0,21.0,25,0.00,,,0.00,0.000000,,2013-02-15 12:32:00,
2013-02-15 04:42:00,63.0,27.0,30.08,NE,50,9.0,21.0,25,0.00,,,0.00,0.000000,,2013-02-15 12:42:00,
2013-02-15 04:52:00,63.0,27.0,30.08,NE,50,9.0,21.0,25,0.00,,,0.00,0.000000,,2013-02-15 12:52:00,
2013-02-15 05:21:00,66.0,25.0,30.08,NE,52,11.0,26.0,21,0.00,,,0.00,0.000000,,2013-02-15 13:21:00,
2013-02-15 05:41:00,66.0,25.0,30.08,NE,52,11.0,26.0,21,0.00,,,0.00,0.000000,,2013-02-15 13:41:00,
2013-02-15 05:51:00,66.0,25.0,30.08,NE,52,11.0,26.0,21,0.00,,,0.00,0.000000,,2013-02-15 13:51:00,
2013-02-15 06:21:00,66.0,23.0,30.09,NE,49,12.0,26.0,19,0.00,,,0.00,0.000000,,2013-02-15 14:21:00,
2013-02-15 06:32:00,66.0,23.0,30.09,NE,49,12.0,26.0,19,0.00,,,0.00,0.000000,,2013-02-15 14:32:00,
2013-02-15 06:41:00,66.0,23.0,30.09,NE,49,12.0,26.0,19,0.00,,,0.00,0.000000,,2013-02-15 14:41:00,
2013-02-15 06:52:00,66.0,23.0,30.09,NE,49,12.0,26.0,19,0.00,,,0.00,0.000000,,2013-02-15 14:52:00,
2013-02-15 07:21:00,66.0,21.0,30.10,NE,53,10.0,24.0,18,0.00,,,0.00,2.000000,,2013-02-15 15:21:00,
2013-02-15 08:22:00,71.0,23.0,30.12,NE,52,11.0,30.0,16,0.00,,,0.00,120.000000,,2013-02-15 16:22:00,
2013-02-15 08:31:00,71.0,23.0,30.12,NE,52,11.0,30.0,16,0.00,,,0.00,120.000000,,2013-02-15 16:31:00,
2013-02-15 08:42:00,71.0,23.0,30.12,NE,52,11.0,30.0,16,0.00,,,0.00,120.000000,,2013-02-15 16:42:00,
2013-02-15 08:51:00,71.0,23.0,30.12,NE,52,11.0,30.0,16,0.00,,,0.00,120.000000,,2013-02-15 16:51:00,
2013-02-15 09:21:00,76.0,22.0,30.14,NE,52,10.0,28.0,13,0.00,,,0.00,324.000000,,2013-02-15 17:21:00,
2013-02-15 09:41:00,76.0,22.0,30.14,NE,52,10.0,28.0,13,0.00,,,0.00,324.000000,,2013-02-15 17:41:00,
2013-02-15 09:52:00,76.0,22.0,30.14,NE,52,10.0,28.0,13,0.00,,,0.00,324.000000,,2013-02-15 17:52:00,
2013-02-15 10:21:00,80.0,21.0,30.15,ENE,73,9.0,23.0,11,0.00,,,0.00,474.000000,,2013-02-15 18:21:00,
2013-02-15 10:41:00,80.0,21.0,30.15,ENE,73,9.0,23.0,11,0.00,,,0.00,474.000000,,2013-02-15 18:41:00,
2013-02-15 10:52:00,80.0,21.0,30.15,ENE,73,9.0,23.0,11,0.00,,,0.00,474.000000,,2013-02-15 18:52:00,
2013-02-15 11:21:00,77.0,37.0,30.17,North,0,3.0,20.0,24,0.00,,,0.00,651.000000,,2013-02-15 19:21:00,
2013-02-15 11:32:00,77.0,37.0,30.17,North,0,3.0,20.0,24,0.00,,,0.00,651.000000,,2013-02-15 19:32:00,
2013-02-15 12:21:00,76.0,40.0,30.16,WSW,241,7.0,17.0,27,0.00,,,0.00,770.000000,,2013-02-15 20:21:00,
2013-02-15 13:21:00,80.0,27.0,30.14,WSW,246,7.0,11.0,14,0.00,,,0.00,828.000000,,2013-02-15 21:21:00,
2013-02-15 13:31:00,80.0,27.0,30.14,WSW,246,7.0,11.0,14,0.00,,,0.00,828.000000,,2013-02-15 21:31:00,
2013-02-15 13:42:00,80.0,27.0,30.14,WSW,246,7.0,11.0,14,0.00,,,0.00,828.000000,,2013-02-15 21:42:00,
2013-02-15 13:51:00,80.0,27.0,30.14,WSW,246,7.0,11.0,14,0.00,,,0.00,828.000000,,2013-02-15 21:51:00,
2013-02-15 14:21:00,77.0,24.0,30.12,WSW,252,7.0,16.0,14,0.00,,,0.00,757.000000,,2013-02-15 22:21:00,
2013-02-15 14:31:00,77.0,24.0,30.12,WSW,252,7.0,16.0,14,0.00,,,0.00,757.000000,,2013-02-15 22:31:00,
2013-02-15 14:41:00,77.0,24.0,30.12,WSW,252,7.0,16.0,14,0.00,,,0.00,757.000000,,2013-02-15 22:41:00,
2013-02-15 14:51:00,77.0,24.0,30.12,WSW,252,7.0,16.0,14,0.00,,,0.00,757.000000,,2013-02-15 22:51:00,
2013-02-15 15:21:00,79.0,24.0,30.12,WSW,245,6.0,12.0,13,0.00,,,0.00,524.000000,,2013-02-15 23:21:00,
2013-02-15 15:31:00,79.0,24.0,30.12,WSW,245,6.0,12.0,13,0.00,,,0.00,524.000000,,2013-02-15 23:31:00,
2013-02-15 15:41:00,79.0,24.0,30.12,WSW,245,6.0,12.0,13,0.00,,,0.00,524.000000,,2013-02-15 23:41:00,
2013-02-15 15:52:00,79.0,24.0,30.12,WSW,245,6.0,12.0,13,0.00,,,0.00,524.000000,,2013-02-15 23:52:00,
2013-02-15 16:11:00,78.0,19.0,30.12,WSW,244,6.0,17.0,11,0.00,,,0.00,505.000000,,2013-02-16 00:11:00,
2013-02-15 16:21:00,78.0,19.0,30.12,WSW,244,6.0,17.0,11,0.00,,,0.00,505.000000,,2013-02-16 00:21:00,
2013-02-15 16:32:00,78.0,19.0,30.12,WSW,244,6.0,17.0,11,0.00,,,0.00,505.000000,,2013-02-16 00:32:00,
2013-02-15 16:41:00,78.0,19.0,30.12,WSW,244,6.0,17.0,11,0.00,,,0.00,505.000000,,2013-02-16 00:41:00,
2013-02-15 16:51:00,78.0,19.0,30.12,WSW,244,6.0,17.0,11,0.00,,,0.00,505.000000,,2013-02-16 00:51:00,
2013-02-15 17:21:00,72.0,18.0,30.13,West,280,4.0,10.0,13,0.00,,,0.00,163.000000,,2013-02-16 01:21:00,
2013-02-15 17:31:00,72.0,18.0,30.13,West,280,4.0,10.0,13,0.00,,,0.00,163.000000,,2013-02-16 01:31:00,
2013-02-15 18:21:00,69.0,18.0,30.12,WNW,285,3.0,8.0,14,0.00,,,0.00,27.000000,,2013-02-16 02:21:00,
2013-02-15 19:21:00,66.0,17.0,30.11,SE,140,3.0,9.0,15,0.00,,,0.00,0.000000,,2013-02-16 03:21:00,
2013-02-15 20:21:00,72.0,12.0,30.11,NE,43,7.0,24.0,10,0.00,,,0.00,0.000000,,2013-02-16 04:21:00,
2013-02-15 21:21:00,73.0,11.0,30.12,NE,51,11.0,25.0,9,0.00,,,0.00,0.000000,,2013-02-16 05:21:00,
2013-02-15 21:31:00,73.0,11.0,30.12,NE,51,11.0,25.0,9,0.00,,,0.00,0.000000,,2013-02-16 05:31:00,
2013-02-15 22:21:00,72.0,10.0,30.12,NE,45,11.0,25.0,9,0.00,,,0.00,0.000000,,2013-02-16 06:21:00,
2013-02-15 23:21:00,70.0,11.0,30.12,NE,37,9.0,23.0,10,0.00,,,0.00,0.000000,,2013-02-16 07:21:00,